User: anonymous   Login
Location: Clandonald
(53.5720°N, 110.7141°W)
Time: 06:16:13
(UTC+00:00)
Language:

Tiangong 2 - Orbit

View from above orbital plane
View from above orbital plane
View from above satellite
View from above satellite

Ground track
Ground track

The orbit data is extracted from the following two-line orbital elements,

1 41765U 16057A   19115.82555556  .00004082  00000-0  51045-4 0  9993
2 41765  42.7821 279.2058 0008893 266.7264 304.9809 15.61330870148856
Epoch (UTC): 25 April 2019 19:48:48
Eccentricity: 0.0008893
inclination: 42.7821°
perigee height: 378 km
apogee height: 390 km
right ascension of ascending node: 279.2058°
argument of perigee: 266.7264°
revolutions per day: 15.61330870
mean anomaly at epoch: 304.9809°
orbit number at epoch: 14885

The dashed part of the orbit path shows where the satellite is in the earth's shadow,  

DLR